CZ-3A DEB, 35550

Orbit data source: Space-Track

CZ-3A DEB, 35550 is space debris in HEO originally from a launch on Fri, 02 Feb 2007 UTC launched from the Xichang Space Center, China (XSC). Debris objects in space refer to the collection of defunct objects orbiting the Earth. Examples of debris include non-operational satellites, rocket bodies, and fragments generated from explosions, collisions, or faulty payload assembly.

Loading next visibility...
Identifier
35550, 2007-003J
Orbit
HEO
Country
Flag of CNCN / PRC
Related business
Manufacturer
Unknown
Mission
Spacecraft
Bus & Motor
Unknown
Mass
Unknown
Launch date (UTC)
2007-02-02 (19 years ago)
Launch vehicle
Unknown
Launch site
Xichang Space Center, China (XSC)
Object type
Payload
Rocket body
Debris
Shape & HBR
Unknown shape, 0.3 m
Radar Cross Section
Medium (>0.1 m² and <1 m²)

Expand to show TLE details & history
Last TLE update: 1 day ago

TLE from 1 day ago
0 CZ-3A DEB
1 35550U 07003J   26035.17959042  .00001263  00000-0  39313-2 0  9994
2 35550  24.5011  57.9220 7379205 216.5668  57.6751  2.09086222127489
Epoch: 2026-02-04T04:18Z
TLE epoch observation values (Epoch: 2026-02-04T04:18:36.612Z)
Latitude
-0.00005°
Longitude
-141.03587°
Altitude
22,495.203 km
Speed
3.49 km/s
True Right ascension
03h 51m 51s
True Declination
0° 00' 00"
Sunlit
Object was in daylight at epoch
Visualization orbit readout
Latitude
Unknown
Longitude
Unknown
Altitude
Unknown
Speed
Unknown
Apparent Right ascension
Unknown
Apparent Declination
Unknown
Sunlit
N/A
Visualization observer readout
Local Sidereal Time
10:10:02
Azimuth
Unknown
Elevation
Unknown
Doppler factor
Unknown
Orbital elements
Apogee altitude
38,525.783 km
Perigee altitude
393.402 km
Semi-major axis
25,837.73 km
Eccentricity
0.73792
Inclination
24.5011°
RAAN
57.922°
Arg. of periapsis
216.5668°
True anomaly
143.53672°
Mean anomaly
57.6751°
Eccentric anomaly
99.38849°
Mean motion
0.52259 °/min
Orbital period
688.88 mins
BSTAR
0.0039313
Loading maneuver chart data...
Computing Atmospheric mass density...
Loading historical data...
Loading historical data...
Loading historical data...
Loading historical data...
Loading historical data...
Loading historical data...
Loading historical data...

Documentation

Showing up to 5 results
|